Weather reports worldwide

Advertisment
Achnagart, United Kingdom (99191): temperature & dewpoint: 12.07.2018 18:00:00 - 18.07.2018 18:00:00 (BST)Achnagart, United Kingdom (99191): precipitation: 12.07.2018 18:00:00 - 18.07.2018 18:00:00 (BST)
Date & Time tt [°C] td [°C] rr [mm]
18.07.2018 18:00:00 18,8 8,0 0,0
18.07.2018 17:00:00 17,7 9,3 0,0
18.07.2018 16:00:00 17,3 9,6 0,0
18.07.2018 15:00:00 - - -
18.07.2018 14:00:00 - - -
18.07.2018 13:00:00 - - -
18.07.2018 12:00:00 - - -
18.07.2018 11:00:00 - - -
18.07.2018 10:00:00 - - -
18.07.2018 09:00:00 - - -
18.07.2018 08:00:00 - - -
18.07.2018 07:00:00 - - -
18.07.2018 06:00:00 - - -
18.07.2018 05:00:00 10,8 10,5 0,2
18.07.2018 04:00:00 11,1 10,5 0,0
18.07.2018 03:00:00 - - -
18.07.2018 02:00:00 - - -
18.07.2018 01:00:00 - - -
18.07.2018 00:00:00 - - -
17.07.2018 23:00:00 - - -
17.07.2018 22:00:00 - - 0,0
17.07.2018 21:00:00 14,8 9,7 0,0
17.07.2018 20:00:00 15,0 7,6 0,0
17.07.2018 19:00:00 15,2 8,7 0,0
17.07.2018 18:00:00 17,6 8,1 0,0
17.07.2018 17:00:00 16,8 8,7 0,0
17.07.2018 16:00:00 15,8 9,1 0,0
17.07.2018 15:00:00 15,9 9,0 0,0
17.07.2018 14:00:00 15,2 9,9 0,0
17.07.2018 13:00:00 16,6 9,8 0,0
17.07.2018 12:00:00 15,0 9,7 0,0
17.07.2018 11:00:00 15,0 11,0 0,0
17.07.2018 10:00:00 14,1 12,1 0,4
17.07.2018 09:00:00 13,0 12,0 0,4
17.07.2018 08:00:00 13,2 12,3 0,0
17.07.2018 07:00:00 12,5 12,2 -
17.07.2018 06:00:00 11,9 11,5 0,0
17.07.2018 05:00:00 11,8 11,3 0,0
17.07.2018 04:00:00 12,0 11,5 0,4
17.07.2018 03:00:00 12,2 11,4 0,0
17.07.2018 02:00:00 13,0 10,7 0,0
17.07.2018 01:00:00 13,4 10,2 0,0
17.07.2018 00:00:00 13,7 9,9 0,0
16.07.2018 23:00:00 13,9 9,3 0,0
16.07.2018 22:00:00 - - 0,0
16.07.2018 21:00:00 15,0 10,3 0,0
16.07.2018 20:00:00 16,0 8,9 0,0
16.07.2018 19:00:00 16,1 9,9 0,0
16.07.2018 18:00:00 16,5 10,5 0,2
16.07.2018 17:00:00 17,2 10,8 0,0
16.07.2018 16:00:00 16,8 10,1 0,0
16.07.2018 15:00:00 17,6 10,1 0,0
16.07.2018 14:00:00 17,0 8,9 0,0
16.07.2018 13:00:00 16,1 9,1 0,0
16.07.2018 12:00:00 16,5 10,5 0,0
16.07.2018 11:00:00 14,6 11,4 0,0
16.07.2018 10:00:00 14,7 12,0 0,0
16.07.2018 09:00:00 14,6 13,0 0,0
16.07.2018 08:00:00 13,0 12,7 0,0
16.07.2018 07:00:00 13,0 12,9 0,0
16.07.2018 06:00:00 12,4 12,3 0,0
16.07.2018 05:00:00 12,4 12,2 0,0
16.07.2018 04:00:00 12,5 12,1 0,4
16.07.2018 03:00:00 12,7 12,1 0,6
16.07.2018 02:00:00 13,0 12,3 0,6
16.07.2018 01:00:00 13,8 12,8 0,4
16.07.2018 00:00:00 15,5 14,2 0,4
15.07.2018 23:00:00 18,3 15,0 0,0
15.07.2018 22:00:00 17,6 15,6 0,0
15.07.2018 21:00:00 17,5 16,6 0,0
15.07.2018 20:00:00 17,9 16,5 0,2
15.07.2018 19:00:00 17,4 16,7 0,0
15.07.2018 18:00:00 18,0 17,2 0,0
15.07.2018 17:00:00 18,4 17,5 0,0
15.07.2018 16:00:00 18,9 17,3 0,2
15.07.2018 15:00:00 18,7 17,4 0,2
15.07.2018 14:00:00 19,4 16,4 0,0
15.07.2018 13:00:00 19,5 16,7 0,0
15.07.2018 12:00:00 19,1 17,2 0,0
15.07.2018 11:00:00 18,5 16,8 0,0
15.07.2018 10:00:00 18,0 17,5 0,2
15.07.2018 09:00:00 17,4 16,6 1,0
15.07.2018 08:00:00 17,7 16,9 0,0
15.07.2018 07:00:00 17,2 16,4 0,4
15.07.2018 06:00:00 17,4 15,9 0,0
15.07.2018 05:00:00 18,0 15,6 0,2
15.07.2018 04:00:00 17,7 15,7 0,0
15.07.2018 03:00:00 17,4 15,8 0,0
15.07.2018 02:00:00 18,3 15,4 0,0
15.07.2018 01:00:00 18,6 15,1 0,0
15.07.2018 00:00:00 19,1 15,3 0,0
14.07.2018 23:00:00 17,5 15,5 0,0
14.07.2018 22:00:00 18,1 14,9 0,0
14.07.2018 21:00:00 18,4 14,8 0,0
14.07.2018 20:00:00 18,5 15,0 0,0
14.07.2018 19:00:00 17,9 15,7 0,0
14.07.2018 18:00:00 16,9 15,7 0,0
14.07.2018 17:00:00 17,5 15,5 0,0
14.07.2018 16:00:00 18,5 14,4 0,2
14.07.2018 15:00:00 19,7 13,7 0,0
14.07.2018 14:00:00 19,7 13,5 0,0
14.07.2018 13:00:00 20,0 12,6 0,0
14.07.2018 12:00:00 19,2 11,5 0,0
14.07.2018 11:00:00 19,2 11,2 0,0
14.07.2018 10:00:00 18,6 11,2 0,0
14.07.2018 09:00:00 18,3 11,4 0,0
14.07.2018 08:00:00 17,6 11,0 0,0
14.07.2018 07:00:00 17,1 11,0 0,0
14.07.2018 06:00:00 17,0 10,5 0,0
14.07.2018 05:00:00 16,6 10,4 0,0
14.07.2018 04:00:00 16,8 10,3 0,0
14.07.2018 03:00:00 15,4 11,0 0,0
14.07.2018 02:00:00 11,4 10,2 0,0
14.07.2018 01:00:00 10,8 10,2 0,0
14.07.2018 00:00:00 12,3 10,9 0,0
13.07.2018 23:00:00 14,0 11,1 0,0
13.07.2018 22:00:00 16,1 11,0 0,0
13.07.2018 21:00:00 17,1 11,0 0,0
13.07.2018 20:00:00 18,2 11,5 0,0
13.07.2018 19:00:00 19,0 10,9 0,0
13.07.2018 18:00:00 18,9 11,5 0,0
13.07.2018 17:00:00 20,0 11,4 0,0
13.07.2018 16:00:00 20,7 12,7 0,0
13.07.2018 15:00:00 20,1 12,3 0,0
13.07.2018 14:00:00 18,6 10,7 0,0
13.07.2018 13:00:00 18,2 12,4 0,0
13.07.2018 12:00:00 17,8 12,4 0,0
13.07.2018 11:00:00 16,7 12,2 0,0
13.07.2018 10:00:00 16,7 13,5 0,0
13.07.2018 09:00:00 14,8 12,7 0,0
13.07.2018 08:00:00 13,8 12,6 0,0
13.07.2018 07:00:00 13,4 12,9 0,0
13.07.2018 06:00:00 13,1 12,7 0,0
13.07.2018 05:00:00 13,1 12,5 0,0
13.07.2018 04:00:00 13,2 12,7 0,0
13.07.2018 03:00:00 13,3 12,6 0,0
13.07.2018 02:00:00 13,4 12,4 0,0
13.07.2018 01:00:00 13,5 12,6 0,0
13.07.2018 00:00:00 13,6 12,2 0,0
12.07.2018 23:00:00 13,6 11,9 0,0
12.07.2018 22:00:00 14,1 11,2 0,0
12.07.2018 21:00:00 15,3 10,8 0,0
12.07.2018 20:00:00 16,8 11,5 0,0
12.07.2018 19:00:00 18,1 12,3 0,0
12.07.2018 18:00:00 18,0 12,9 0,0

tt = temperature
td = dewpoint
rr = precipitation

Next stations